Home   Weather   Fairfield   Past weeks
Flag for Jamaica

Past Weather in Fairfield, Jamaica — Yesterday and Last 2 Weeks

Now
84 °F

Passing clouds.


Feels Like: 91 °F
Forecast: 91 / 78 °F
Wind: 2 mph from North

Location: Montego Bay / Sangster

Current Time: Jul 4, 2020 at 8:57:40 pm

Latest Report: Jul 4, 2020 at 8:00 pm


Visibility: N/A

Pressure: 29.92 "Hg

Humidity: 70%

Dew Point: 73 °F

Location of FairfieldLocation

Past Weather in Fairfield — Graph

°F

Fairfield Temperature Yesterday

Maximum temperature yesterday: 90 °F (at 2:00 pm)
Minimum temperature yesterday: 79 °F (at 6:00 am)
Average temperature yesterday: 85 °F

High & Low Weather Summary for the Past Weeks

 TemperatureHumidityPressure
High90 °F (Jun 22, 12:00 pm)89% (Jun 20, 10:00 pm)30.04 "Hg (Jun 20, 10:00 pm)
Low75 °F (Jun 30, 1:28 pm)55% (Jul 4, 5:00 pm)29.86 "Hg (Jul 2, 4:00 pm)
Average84 °F77%29.94 "Hg
* Reported Jun 19 7:00 pm — Jul 4 7:00 pm, Fairfield. Weather by CustomWeather, © 2020

Note: Actual official high and low records may vary slightly from our data, if they occured in-between our weather recording intervals... More about our weather records

Fairfield Weather History for the Previous 24 Hours

Scroll right to see more
 ConditionsComfort  
Time TempWeatherWind HumidityBarometerVisibility
7:00 pm
Sat, Jul 4
84 °FPassing clouds.5 mph66%29.92 "HgN/A
6:00 pm84 °FPassing clouds.7 mph66%29.92 "HgN/A
5:00 pm86 °FSprinkles. Scattered clouds.20 mph55%29.89 "HgN/A
4:00 pm90 °FPassing clouds.18 mph71%29.89 "HgN/A
3:00 pm88 °FPassing clouds.18 mph75%29.92 "HgN/A
2:00 pm90 °FPassing clouds.17 mph71%29.92 "HgN/A
1:00 pm90 °FPassing clouds.16 mph71%29.95 "HgN/A
12:00 pm88 °FPassing clouds.13 mph75%29.95 "HgN/A
11:00 am88 °FPassing clouds.15 mph75%29.98 "HgN/A
10:00 am86 °FPassing clouds.12 mph75%29.98 "HgN/A
9:00 am86 °FPassing clouds.5 mph66%29.95 "HgN/A
8:00 am84 °FPassing clouds.5 mph70%29.95 "HgN/A
7:00 am84 °FPassing clouds.No wind70%29.95 "HgN/A
6:00 am81 °FSunny.1 mph74%29.92 "Hg10 mi
5:00 am81 °FClear.1 mph74%29.92 "Hg10 mi
4:00 am79 °FPassing clouds.1 mph84%29.92 "HgN/A
3:00 am81 °FPassing clouds.1 mph79%29.89 "HgN/A
2:00 am82 °FPassing clouds.2 mph74%29.89 "HgN/A
1:00 am84 °FPassing clouds.10 mph70%29.89 "HgN/A
12:00 am82 °FPassing clouds.7 mph79%29.92 "HgN/A
11:00 pm
Fri, Jul 3
82 °FPassing clouds.3 mph84%29.92 "HgN/A
10:00 pm84 °FPassing clouds.2 mph79%29.95 "HgN/A
9:00 pm84 °FPassing clouds.6 mph79%29.92 "HgN/A
8:00 pm86 °FPassing clouds.13 mph75%29.92 "HgN/A
Weather by CustomWeather, © 2020

See weather overview